Weather History for Fredericksburg, TX

Change the Weather History Date:

Monday, July 29, 2013

  Actual Average (KSAT) Record (KSAT)
Temperature  
Mean Temperature 86 °F 85 °F  
Max Temperature 97 °F 96 °F 103 °F (1946)
Min Temperature 75 °F 75 °F 67 °F (1994)
Degree Days  
Heating Degree Days 0 0  
Month to date heating degree days 0  
Since 1 June heating degree days 0  
Since 1 July heating degree days 0  
Cooling Degree Days 20 20  
Month to date cooling degree days 566  
Year to date cooling degree days 1718  
Since 1 June cooling degree days 1089  
Growing Degree Days 36 (Base 50)    
Moisture  
Dew Point 65 °F    
Average Humidity 55    
Maximum Humidity 84    
Minimum Humidity 23    
Precipitation  
Precipitation 0.00 in 0.06 in 0.96 in (1893)
Month to date precipitation 2.63  
Year to date precipitation 18.74  
Snow  
Snow 0.00 in - - ()
Month to date snowfall  
Since 1 June snowfall  
Since 1 July snowfall  
Snow Depth -    
Sea Level Pressure  
Sea Level Pressure 30.01 in    
Wind  
Wind Speed 10 mph (South)    
Max Wind Speed 20 mph    
Max Gust Speed 25 mph    
Visibility 10 miles    
Events      
T = Trace of Precipitation, MM = Missing Value Source: NWS Daily Summary

Daily Weather History Graph

Daily Weather History Graph

Search for Another Location

Airport:

Trip Planner

Search our weather history database for the weather conditions in past years. The results will help you decide how hot, cold, wet, or windy it might be!

Date:

Astronomy

Jul. 29, 2013 Rise Set
Actual Time 6:52 AM CDT 8:31 PM CDT
Civil Twilight 6:26 AM CDT 8:57 PM CDT
Nautical Twilight 5:54 AM CDT 9:28 PM CDT
Astronomical Twilight 5:21 AM CDT 10:01 PM CDT
Moon 12:29 AM CDT (7/29) 1:58 PM CDT (7/29)
Length of Visible Light 14h 30m
Length of Day
13h 38m
Waning Gibbous, 50% of the Moon is Illuminated
Jul 29
Waning Gibbous
Jul 29
Last Quarter
Aug 6
New
Aug 14
First Quarter
Aug 20
Full

Hourly Weather History & Observations

Time (CDT) Temp. Heat Index Dew Point Humidity Pressure Visibility Wind Dir Wind Speed Gust Speed Precip Events Conditions
12:15 AM 81.0 °F 84.2 °F 69.6 °F 68% 29.97 in 10.0 mi SSE 5.8 mph - N/A   Clear
12:35 AM 80.6 °F 84.2 °F 70.7 °F 72% 29.97 in 10.0 mi SSE 4.6 mph - N/A   Clear
12:55 AM 80.1 °F 83.4 °F 70.9 °F 73% 29.98 in 10.0 mi SSE 5.8 mph - N/A   Clear
1:15 AM 79.3 °F - 70.9 °F 75% 29.99 in 10.0 mi South 6.9 mph - N/A   Clear
1:35 AM 78.8 °F - 70.7 °F 76% 29.99 in 10.0 mi South 9.2 mph - N/A   Clear
1:55 AM 78.1 °F - 70.7 °F 78% 29.99 in 10.0 mi South 6.9 mph - N/A   Clear
2:15 AM 77.9 °F - 70.9 °F 79% 29.99 in 10.0 mi SSE 8.1 mph - N/A   Scattered Clouds
2:55 AM 77.4 °F - 71.1 °F 81% 29.99 in 10.0 mi SSE 6.9 mph - N/A   Mostly Cloudy
3:15 AM 77.9 °F - 71.1 °F 79% 29.99 in 10.0 mi South 10.4 mph 16.1 mph N/A   Overcast
3:35 AM 77.9 °F - 71.2 °F 80% 29.99 in 10.0 mi South 5.8 mph 9.2 mph N/A   Overcast
3:55 AM 77.7 °F - 70.9 °F 79% 29.99 in 10.0 mi South 9.2 mph - N/A   Overcast
4:15 AM 77.5 °F - 70.9 °F 80% 29.99 in 10.0 mi South 6.9 mph - N/A   Overcast
4:35 AM 77.2 °F - 70.9 °F 81% 29.99 in 10.0 mi South 6.9 mph - N/A   Mostly Cloudy
4:55 AM 76.6 °F - 70.3 °F 81% 29.99 in 10.0 mi South 8.1 mph - N/A   Scattered Clouds
5:15 AM 76.5 °F - 70.7 °F 82% 29.99 in 10.0 mi SSE 8.1 mph - N/A   Mostly Cloudy
5:35 AM 76.1 °F - 70.2 °F 82% 30.00 in 10.0 mi South 8.1 mph - N/A   Scattered Clouds
5:55 AM 75.6 °F - 70.0 °F 83% 29.99 in 10.0 mi South 5.8 mph - N/A   Scattered Clouds
6:15 AM 75.2 °F - 70.0 °F 84% 30.00 in 10.0 mi South 5.8 mph - N/A   Scattered Clouds
6:35 AM 75.6 °F - 70.2 °F 83% 30.00 in 10.0 mi South 6.9 mph - N/A   Mostly Cloudy
6:55 AM 75.6 °F - 70.0 °F 83% 30.01 in 10.0 mi South 6.9 mph - N/A   Overcast
7:15 AM 76.1 °F - 69.8 °F 81% 30.02 in 10.0 mi South 9.2 mph - N/A   Overcast
7:35 AM 76.5 °F - 69.4 °F 79% 30.02 in 10.0 mi South 12.7 mph - N/A   Overcast
7:55 AM 77.0 °F - 68.9 °F 76% 30.03 in 10.0 mi South 11.5 mph - N/A   Overcast
8:15 AM 77.0 °F - 68.9 °F 76% 30.04 in 10.0 mi South 10.4 mph 17.3 mph N/A   Overcast
8:35 AM 77.2 °F - 68.9 °F 76% 30.04 in 10.0 mi South 12.7 mph - N/A   Overcast
8:55 AM 77.9 °F - 69.3 °F 75% 30.04 in 10.0 mi South 12.7 mph - N/A   Overcast
9:15 AM 78.4 °F - 68.9 °F 72% 30.04 in 10.0 mi South 17.3 mph 23.0 mph N/A   Overcast
9:35 AM 79.5 °F - 68.5 °F 69% 30.05 in 10.0 mi South 16.1 mph 20.7 mph N/A   Mostly Cloudy
9:55 AM 81.0 °F 84.1 °F 68.9 °F 67% 30.05 in 10.0 mi SSW 12.7 mph - N/A   Scattered Clouds
10:15 AM 82.2 °F 85.5 °F 68.7 °F 64% 30.06 in 10.0 mi South 13.8 mph 20.7 mph N/A   Scattered Clouds
10:35 AM 81.1 °F 84.0 °F 68.2 °F 65% 30.06 in 10.0 mi South 15.0 mph - N/A   Scattered Clouds
10:55 AM 84.0 °F 86.8 °F 67.1 °F 57% 30.05 in 10.0 mi South 13.8 mph 20.7 mph N/A   Clear
11:15 AM 85.1 °F 87.4 °F 66.2 °F 53% 30.05 in 10.0 mi SSW 10.4 mph 17.3 mph N/A   Clear
11:35 AM 86.9 °F 88.6 °F 65.1 °F 48% 30.05 in 10.0 mi South 15.0 mph 18.4 mph N/A   Clear
11:55 AM 86.9 °F 87.8 °F 63.0 °F 45% 30.05 in 10.0 mi SSW 10.4 mph - N/A   Clear
12:15 PM 88.5 °F 88.6 °F 61.5 °F 40% 30.04 in 10.0 mi South 18.4 mph - N/A   Clear
12:35 PM 89.4 °F 89.2 °F 60.6 °F 38% 30.05 in 10.0 mi South 16.1 mph 25.3 mph N/A   Clear
12:55 PM 90.1 °F 89.1 °F 58.1 °F 34% 30.04 in 10.0 mi South 15.0 mph 24.2 mph N/A   Clear
1:15 PM 91.2 °F 90.2 °F 58.6 °F 33% 30.04 in 10.0 mi SSW 12.7 mph 21.9 mph N/A   Clear
1:35 PM 91.6 °F 90.7 °F 58.5 °F 33% 30.04 in 10.0 mi South 16.1 mph 23.0 mph N/A   Clear
1:55 PM 92.5 °F 91.6 °F 58.6 °F 32% 30.03 in 10.0 mi South 19.6 mph 24.2 mph N/A   Clear
2:15 PM 93.0 °F 92.0 °F 58.3 °F 31% 30.02 in 10.0 mi South 11.5 mph 17.3 mph N/A   Clear
2:35 PM 93.7 °F 92.6 °F 57.6 °F 30% 30.01 in 10.0 mi SSE 16.1 mph 20.7 mph N/A   Clear
2:55 PM 94.1 °F 92.8 °F 57.4 °F 29% 30.01 in 10.0 mi South 8.1 mph 23.0 mph N/A   Clear
3:15 PM 94.8 °F 93.4 °F 56.8 °F 28% 30.01 in 10.0 mi South 17.3 mph 20.7 mph N/A   Clear
3:35 PM 95.2 °F 93.0 °F 54.5 °F 25% 30.00 in 10.0 mi South 12.7 mph 20.7 mph N/A   Clear
3:55 PM 96.1 °F 94.5 °F 55.6 °F 26% 30.00 in 10.0 mi SSE 15.0 mph 21.9 mph N/A   Clear
4:15 PM 95.9 °F 93.9 °F 55.0 °F 25% 29.99 in 10.0 mi SSE 13.8 mph 20.7 mph N/A   Clear
4:35 PM 96.8 °F 94.7 °F 54.5 °F 24% 29.99 in 10.0 mi SSE 16.1 mph 21.9 mph N/A   Clear
4:55 PM 96.6 °F 94.2 °F 53.2 °F 23% 29.99 in 10.0 mi South 15.0 mph 23.0 mph N/A   Clear
5:15 PM 95.9 °F 93.9 °F 54.5 °F 25% 29.99 in 10.0 mi South 15.0 mph 23.0 mph N/A   Clear
5:35 PM 95.9 °F 94.2 °F 55.4 °F 26% 29.99 in 10.0 mi SSE 13.8 mph 21.9 mph N/A   Clear
5:55 PM 95.5 °F 93.7 °F 55.8 °F 26% 29.98 in 10.0 mi SSE 13.8 mph 21.9 mph N/A   Clear
6:15 PM 95.2 °F 93.6 °F 55.8 °F 27% 29.98 in 10.0 mi SSE 11.5 mph 19.6 mph N/A   Clear
6:35 PM 94.3 °F 93.0 °F 57.2 °F 29% 29.97 in 10.0 mi South 13.8 mph 21.9 mph N/A   Clear
6:55 PM 93.7 °F 92.3 °F 57.2 °F 29% 29.98 in 10.0 mi SE 10.4 mph 19.6 mph N/A   Clear
7:15 PM 92.8 °F 91.1 °F 56.5 °F 29% 29.98 in 10.0 mi SSE 12.7 mph - N/A   Clear
7:35 PM 92.1 °F 90.5 °F 56.3 °F 30% 29.99 in 10.0 mi SSE 10.4 mph 17.3 mph N/A   Clear
7:55 PM 91.4 °F 89.9 °F 57.2 °F 31% 29.99 in 10.0 mi SSE 9.2 mph 16.1 mph N/A   Clear
8:15 PM 90.3 °F 89.0 °F 57.7 °F 33% 30.01 in 10.0 mi SSE 10.4 mph - N/A   Clear
8:35 PM 88.9 °F 87.7 °F 58.3 °F 35% 30.01 in 10.0 mi SSE 6.9 mph - N/A   Clear
8:55 PM 88.2 °F 88.4 °F 61.9 °F 41% 30.02 in 10.0 mi SSE 9.2 mph - N/A   Clear
9:15 PM 86.9 °F 88.6 °F 65.1 °F 48% 30.03 in 10.0 mi South 12.7 mph 17.3 mph N/A   Clear
9:35 PM 86.2 °F 88.8 °F 66.6 °F 52% 30.04 in 10.0 mi SSE 10.4 mph 17.3 mph N/A   Clear
9:55 PM 85.1 °F 88.2 °F 67.6 °F 56% 30.05 in 10.0 mi South 12.7 mph 20.7 mph N/A   Clear
10:15 PM 84.4 °F 87.9 °F 68.5 °F 59% 30.06 in 10.0 mi South 11.5 mph 20.7 mph N/A   Clear
10:35 PM 83.3 °F 86.9 °F 68.9 °F 62% 30.04 in 10.0 mi South 10.4 mph 21.9 mph N/A   Clear
10:55 PM 82.8 °F 86.4 °F 69.3 °F 64% 30.04 in 10.0 mi South 13.8 mph 21.9 mph N/A   Clear
11:15 PM 82.0 °F 85.5 °F 69.4 °F 65% 30.05 in 10.0 mi South 13.8 mph 19.6 mph N/A   Clear
11:35 PM 81.3 °F 84.6 °F 69.4 °F 67% 30.06 in 10.0 mi SSE 10.4 mph 17.3 mph N/A   Clear
11:55 PM 80.6 °F 83.6 °F 69.1 °F 68% 30.06 in 10.0 mi SSE 8.1 mph 18.4 mph N/A   Clear